Time,TemperatureF,DewpointF,PressureIn,WindDirection,WindDirectionDegrees,WindSpeedMPH,WindSpeedGustMPH,Humidity,HourlyPrecipIn,Conditions,Clouds,dailyrainin,SoftwareType,DateUTC
2013-10-11 00:00:00,51.6,45.0,29.98,NE,55,1.0,7.0,78,0.00,,---,0.30,VWS V14.01,2013-10-11 07:00:00,
2013-10-11 00:02:00,51.7,45.1,29.98,NE,55,5.0,5.0,78,0.00,,---,0.00,VWS V14.01,2013-10-11 07:02:00,
2013-10-11 00:07:00,51.8,44.8,29.98,NE,55,3.0,6.0,77,0.00,,---,0.00,VWS V14.01,2013-10-11 07:07:00,
2013-10-11 00:12:00,51.8,44.8,29.98,NE,55,1.0,6.0,77,0.00,,---,0.00,VWS V14.01,2013-10-11 07:12:00,
2013-10-11 00:15:00,51.8,44.5,29.98,NE,55,0.0,6.0,76,0.00,,---,0.00,VWS V14.01,2013-10-11 07:15:00,
2013-10-11 00:17:00,51.8,44.5,29.98,NE,56,0.0,3.0,76,0.00,,---,0.00,VWS V14.01,2013-10-11 07:17:00,
2013-10-11 00:22:00,51.8,44.5,29.98,NE,55,0.0,3.0,76,0.00,,---,0.00,VWS V14.01,2013-10-11 07:22:00,
2013-10-11 00:27:00,51.7,44.4,29.98,NE,55,0.0,3.0,76,0.00,,---,0.00,VWS V14.01,2013-10-11 07:27:00,
2013-10-11 00:30:00,51.6,44.3,29.98,NE,55,1.0,3.0,76,0.00,,---,0.00,VWS V14.01,2013-10-11 07:30:00,
2013-10-11 00:32:00,51.6,44.3,29.98,NE,55,0.0,2.0,76,0.00,,---,0.00,VWS V14.01,2013-10-11 07:32:00,
2013-10-11 00:37:00,51.5,44.5,29.98,NE,55,2.0,3.0,77,0.00,,---,0.00,VWS V14.01,2013-10-11 07:37:00,
2013-10-11 00:42:00,51.5,44.5,29.98,NE,55,0.0,3.0,77,0.00,,---,0.00,VWS V14.01,2013-10-11 07:42:00,
2013-10-11 00:45:00,51.5,44.5,29.98,NE,55,3.0,5.0,77,0.00,,---,0.00,VWS V14.01,2013-10-11 07:45:00,
2013-10-11 00:47:00,51.4,44.4,29.98,NE,55,0.0,4.0,77,0.00,,---,0.00,VWS V14.01,2013-10-11 07:47:00,
2013-10-11 00:52:00,51.4,44.4,29.98,NE,55,0.0,4.0,77,0.00,,---,0.00,VWS V14.01,2013-10-11 07:52:00,
2013-10-11 00:57:00,51.3,44.3,29.98,NE,55,0.0,4.0,77,0.00,,---,0.00,VWS V14.01,2013-10-11 07:57:00,
2013-10-11 01:00:00,51.2,44.2,29.98,NE,55,0.0,4.0,77,0.00,,---,0.00,VWS V14.01,2013-10-11 08:00:00,
2013-10-11 01:02:00,51.2,44.2,29.98,NE,55,0.0,3.0,77,0.00,,---,0.00,VWS V14.01,2013-10-11 08:02:00,
2013-10-11 01:07:00,51.1,44.2,29.98,NE,55,0.0,4.0,77,0.00,,---,0.00,VWS V14.01,2013-10-11 08:07:00,
2013-10-11 01:12:00,51.0,44.4,29.98,NE,55,2.0,4.0,78,0.00,,---,0.00,VWS V14.01,2013-10-11 08:12:00,
2013-10-11 01:15:00,51.0,44.4,29.98,NE,55,0.0,4.0,78,0.00,,---,0.00,VWS V14.01,2013-10-11 08:15:00,
2013-10-11 01:17:00,51.0,44.4,29.98,NE,55,0.0,2.0,78,0.00,,---,0.00,VWS V14.01,2013-10-11 08:17:00,
2013-10-11 01:22:00,50.9,44.3,29.98,NE,55,0.0,2.0,78,0.00,,---,0.00,VWS V14.01,2013-10-11 08:22:00,
2013-10-11 01:27:00,50.8,44.2,29.98,NE,56,0.0,2.0,78,0.00,,---,0.00,VWS V14.01,2013-10-11 08:27:00,
2013-10-11 01:30:00,50.7,44.1,29.98,NE,55,0.0,2.0,78,0.00,,---,0.00,VWS V14.01,2013-10-11 08:30:00,
2013-10-11 01:32:00,50.7,44.1,29.98,NE,55,4.0,4.0,78,0.00,,---,0.00,VWS V14.01,2013-10-11 08:32:00,
2013-10-11 01:37:00,50.7,44.1,29.98,ENE,59,4.0,7.0,78,0.00,,---,0.00,VWS V14.01,2013-10-11 08:37:00,
2013-10-11 01:42:00,50.9,44.3,29.98,ENE,57,4.0,9.0,78,0.00,,---,0.00,VWS V14.01,2013-10-11 08:42:00,
2013-10-11 01:45:00,51.1,44.5,29.98,NE,56,2.0,9.0,78,0.00,,---,0.00,VWS V14.01,2013-10-11 08:45:00,
2013-10-11 01:47:00,51.2,44.6,29.98,ENE,57,0.0,4.0,78,0.00,,---,0.00,VWS V14.01,2013-10-11 08:47:00,
2013-10-11 01:52:00,51.3,44.3,29.98,ENE,57,2.0,5.0,77,0.00,,---,0.00,VWS V14.01,2013-10-11 08:52:00,
2013-10-11 01:57:00,51.4,44.4,29.98,ENE,57,2.0,5.0,77,0.00,,---,0.00,VWS V14.01,2013-10-11 08:57:00,
2013-10-11 02:00:00,51.4,44.4,29.98,NE,56,2.0,5.0,77,0.00,,---,0.00,VWS V14.01,2013-10-11 09:00:00,
2013-10-11 02:02:00,51.4,44.4,29.97,NE,56,0.0,3.0,77,0.00,,---,0.00,VWS V14.01,2013-10-11 09:02:00,
2013-10-11 02:07:00,51.4,44.4,29.98,NE,56,4.0,5.0,77,0.00,,---,0.00,VWS V14.01,2013-10-11 09:07:00,
2013-10-11 02:12:00,51.3,44.3,29.98,ENE,57,0.0,5.0,77,0.00,,---,0.00,VWS V14.01,2013-10-11 09:12:00,
2013-10-11 02:15:00,51.2,44.2,29.97,ENE,57,0.0,5.0,77,0.00,,---,0.00,VWS V14.01,2013-10-11 09:15:00,
2013-10-11 02:17:00,51.2,44.2,29.98,ENE,57,3.0,5.0,77,0.00,,---,0.00,VWS V14.01,2013-10-11 09:17:00,
2013-10-11 02:22:00,51.2,44.2,29.97,NE,56,0.0,6.0,77,0.00,,---,0.00,VWS V14.01,2013-10-11 09:22:00,
2013-10-11 02:27:00,51.2,44.2,29.97,ENE,57,5.0,6.0,77,0.00,,---,0.00,VWS V14.01,2013-10-11 09:27:00,
2013-10-11 02:30:00,51.3,44.3,29.97,ENE,57,0.0,8.0,77,0.00,,---,0.00,VWS V14.01,2013-10-11 09:30:00,
2013-10-11 02:32:00,51.3,44.3,29.97,ENE,57,2.0,5.0,77,0.00,,---,0.00,VWS V14.01,2013-10-11 09:32:00,
2013-10-11 02:37:00,51.3,44.3,29.97,ENE,57,2.0,6.0,77,0.00,,---,0.00,VWS V14.01,2013-10-11 09:37:00,
2013-10-11 02:42:00,51.3,44.3,29.98,ENE,57,0.0,6.0,77,0.00,,---,0.00,VWS V14.01,2013-10-11 09:42:00,
2013-10-11 02:45:00,51.3,44.3,29.97,ENE,57,1.0,6.0,77,0.00,,---,0.00,VWS V14.01,2013-10-11 09:45:00,
2013-10-11 02:47:00,51.3,44.3,29.97,ENE,57,5.0,5.0,77,0.00,,---,0.00,VWS V14.01,2013-10-11 09:47:00,
2013-10-11 02:52:00,51.2,44.2,29.97,ENE,57,3.0,6.0,77,0.00,,---,0.00,VWS V14.01,2013-10-11 09:52:00,
2013-10-11 02:57:00,51.2,44.2,29.97,ENE,57,3.0,6.0,77,0.00,,---,0.00,VWS V14.01,2013-10-11 09:57:00,
2013-10-11 03:00:00,51.1,44.2,29.97,NE,56,0.0,6.0,77,0.00,,---,0.00,VWS V14.01,2013-10-11 10:00:00,
2013-10-11 03:02:00,51.1,44.2,29.98,ENE,57,4.0,4.0,77,0.00,,---,0.00,VWS V14.01,2013-10-11 10:02:00,
2013-10-11 03:07:00,51.0,44.0,29.97,ENE,57,0.0,5.0,77,0.00,,---,0.00,VWS V14.01,2013-10-11 10:07:00,
2013-10-11 03:12:00,51.1,44.2,29.98,NE,56,0.0,5.0,77,0.00,,---,0.00,VWS V14.01,2013-10-11 10:12:00,
2013-10-11 03:15:00,51.1,44.2,29.98,ENE,57,0.0,5.0,77,0.00,,---,0.00,VWS V14.01,2013-10-11 10:15:00,
2013-10-11 03:17:00,51.1,44.2,29.98,ENE,57,0.0,4.0,77,0.00,,---,0.00,VWS V14.01,2013-10-11 10:17:00,
2013-10-11 03:22:00,51.1,44.2,29.98,ENE,57,0.0,4.0,77,0.00,,---,0.00,VWS V14.01,2013-10-11 10:22:00,
2013-10-11 03:27:00,51.1,44.2,29.98,NE,56,0.0,4.0,77,0.00,,---,0.00,VWS V14.01,2013-10-11 10:27:00,
2013-10-11 03:30:00,51.0,44.0,29.98,ENE,57,0.0,4.0,77,0.00,,---,0.00,VWS V14.01,2013-10-11 10:30:00,
2013-10-11 03:32:00,51.0,44.0,29.98,NE,56,0.0,0.0,77,0.00,,---,0.00,VWS V14.01,2013-10-11 10:32:00,
2013-10-11 03:37:00,50.8,43.9,29.98,NE,56,1.0,3.0,77,0.00,,---,0.00,VWS V14.01,2013-10-11 10:37:00,
2013-10-11 03:42:00,50.6,43.7,29.98,NE,56,0.0,5.0,77,0.00,,---,0.00,VWS V14.01,2013-10-11 10:42:00,
2013-10-11 03:45:00,50.5,43.9,29.98,ENE,57,1.0,5.0,78,0.00,,---,0.00,VWS V14.01,2013-10-11 10:45:00,
2013-10-11 03:47:00,50.4,43.8,29.98,ENE,57,2.0,4.0,78,0.00,,---,0.00,VWS V14.01,2013-10-11 10:47:00,
2013-10-11 03:52:00,50.2,43.6,29.98,ENE,57,1.0,4.0,78,0.00,,---,0.00,VWS V14.01,2013-10-11 10:52:00,
2013-10-11 03:57:00,50.1,43.5,29.98,ENE,57,3.0,4.0,78,0.00,,---,0.00,VWS V14.01,2013-10-11 10:57:00,
2013-10-11 04:00:00,50.0,43.8,29.98,NE,56,2.0,5.0,79,0.00,,---,0.00,VWS V14.01,2013-10-11 11:00:00,
2013-10-11 04:02:00,50.0,43.8,29.98,ENE,57,0.0,4.0,79,0.00,,---,0.00,VWS V14.01,2013-10-11 11:02:00,
2013-10-11 04:07:00,49.9,43.7,29.98,ENE,57,3.0,4.0,79,0.00,,---,0.00,VWS V14.01,2013-10-11 11:07:00,
2013-10-11 04:12:00,49.8,43.6,29.98,NE,56,2.0,5.0,79,0.00,,---,0.00,VWS V14.01,2013-10-11 11:12:00,
2013-10-11 04:15:00,49.8,43.6,29.98,NE,56,2.0,5.0,79,0.00,,---,0.00,VWS V14.01,2013-10-11 11:15:00,
2013-10-11 04:17:00,49.7,43.5,29.98,NE,56,0.0,2.0,79,0.00,,---,0.00,VWS V14.01,2013-10-11 11:17:00,
2013-10-11 04:22:00,49.6,43.4,29.98,ENE,57,0.0,2.0,79,0.00,,---,0.00,VWS V14.01,2013-10-11 11:22:00,
2013-10-11 04:27:00,49.6,43.4,29.98,ENE,57,0.0,3.0,79,0.00,,---,0.00,VWS V14.01,2013-10-11 11:27:00,
2013-10-11 04:30:00,49.5,43.6,29.98,ENE,57,0.0,3.0,80,0.00,,---,0.00,VWS V14.01,2013-10-11 11:30:00,
2013-10-11 04:32:00,49.5,43.3,29.98,ENE,57,0.0,0.0,79,0.00,,---,0.00,VWS V14.01,2013-10-11 11:32:00,
2013-10-11 04:37:00,49.4,43.2,29.99,ENE,57,2.0,3.0,79,0.00,,---,0.00,VWS V14.01,2013-10-11 11:37:00,
2013-10-11 04:42:00,49.4,43.5,29.99,ENE,57,0.0,3.0,80,0.00,,---,0.00,VWS V14.01,2013-10-11 11:42:00,
2013-10-11 04:45:00,49.4,43.5,29.99,ENE,57,0.0,4.0,80,0.00,,---,0.00,VWS V14.01,2013-10-11 11:45:00,
2013-10-11 04:47:00,49.4,43.5,29.99,ENE,57,3.0,3.0,80,0.00,,---,0.00,VWS V14.01,2013-10-11 11:47:00,
2013-10-11 04:52:00,49.3,43.1,29.99,ENE,57,1.0,3.0,79,0.00,,---,0.00,VWS V14.01,2013-10-11 11:52:00,
2013-10-11 04:57:00,49.4,43.5,29.99,NE,56,0.0,4.0,80,0.00,,---,0.00,VWS V14.01,2013-10-11 11:57:00,
2013-10-11 05:00:00,49.5,43.6,29.99,NE,56,2.0,6.0,80,0.00,,---,0.00,VWS V14.01,2013-10-11 12:00:00,
2013-10-11 05:02:00,49.5,43.6,29.99,NE,56,4.0,6.0,80,0.00,,---,0.00,VWS V14.01,2013-10-11 12:02:00,
2013-10-11 05:07:00,49.7,43.8,29.99,NE,55,1.0,6.0,80,0.00,,---,0.00,VWS V14.01,2013-10-11 12:07:00,
2013-10-11 05:12:00,49.9,43.7,29.99,NE,55,2.0,6.0,79,0.00,,---,0.00,VWS V14.01,2013-10-11 12:12:00,
2013-10-11 05:15:00,50.0,43.8,29.99,NE,56,4.0,6.0,79,0.00,,---,0.00,VWS V14.01,2013-10-11 12:15:00,
2013-10-11 05:17:00,50.0,43.8,29.99,NE,56,3.0,4.0,79,0.00,,---,0.00,VWS V14.01,2013-10-11 12:17:00,
2013-10-11 05:22:00,50.0,43.8,29.99,NE,56,2.0,5.0,79,0.00,,---,0.00,VWS V14.01,2013-10-11 12:22:00,
2013-10-11 05:27:00,50.0,43.8,29.99,ENE,57,2.0,5.0,79,0.00,,---,0.00,VWS V14.01,2013-10-11 12:27:00,
2013-10-11 05:30:00,50.0,43.8,29.99,NE,55,0.0,5.0,79,0.00,,---,0.00,VWS V14.01,2013-10-11 12:30:00,
2013-10-11 05:32:00,49.9,43.7,29.99,NE,56,2.0,4.0,79,0.00,,---,0.00,VWS V14.01,2013-10-11 12:32:00,
2013-10-11 05:37:00,49.9,43.7,29.99,NE,55,3.0,4.0,79,0.00,,---,0.00,VWS V14.01,2013-10-11 12:37:00,
2013-10-11 05:42:00,49.8,43.6,29.99,NE,56,1.0,4.0,79,0.00,,---,0.00,VWS V14.01,2013-10-11 12:42:00,
2013-10-11 05:45:00,49.7,43.5,29.99,NE,55,0.0,4.0,79,0.00,,---,0.00,VWS V14.01,2013-10-11 12:45:00,
2013-10-11 05:47:00,49.7,43.5,29.99,NE,56,0.0,2.0,79,0.00,,---,0.00,VWS V14.01,2013-10-11 12:47:00,
2013-10-11 05:52:00,49.6,43.7,29.99,NE,56,3.0,3.0,80,0.00,,---,0.00,VWS V14.01,2013-10-11 12:52:00,
2013-10-11 05:57:00,49.5,43.6,29.99,NE,55,0.0,5.0,80,0.00,,---,0.00,VWS V14.01,2013-10-11 12:57:00,
2013-10-11 06:00:00,49.4,43.5,29.99,NE,56,3.0,5.0,80,0.00,,---,0.00,VWS V14.01,2013-10-11 13:00:00,
2013-10-11 06:02:00,49.4,43.5,30.00,ENE,57,2.0,5.0,80,0.00,,---,0.00,VWS V14.01,2013-10-11 13:02:00,
2013-10-11 06:07:00,49.4,43.5,30.00,NE,56,3.0,5.0,80,0.00,,---,0.00,VWS V14.01,2013-10-11 13:07:00,
2013-10-11 06:12:00,49.4,43.5,30.00,NE,56,3.0,5.0,80,0.00,,---,0.00,VWS V14.01,2013-10-11 13:12:00,
2013-10-11 06:17:00,49.4,43.5,30.00,NE,56,3.0,4.0,80,0.00,,---,0.00,VWS V14.01,2013-10-11 13:17:00,
2013-10-11 06:22:00,49.4,43.5,30.00,NE,56,3.0,5.0,80,0.00,,---,0.00,VWS V14.01,2013-10-11 13:22:00,
2013-10-11 06:27:00,49.4,43.5,30.00,NE,55,4.0,5.0,80,0.00,,---,0.00,VWS V14.01,2013-10-11 13:27:00,
2013-10-11 06:30:00,49.4,43.5,30.00,NE,56,3.0,5.0,80,0.00,,---,0.00,VWS V14.01,2013-10-11 13:30:00,
2013-10-11 06:32:00,49.5,43.6,30.00,NE,56,3.0,5.0,80,0.00,,---,0.00,VWS V14.01,2013-10-11 13:32:00,
2013-10-11 06:37:00,49.6,43.7,30.00,NE,56,5.0,5.0,80,0.00,,---,0.00,VWS V14.01,2013-10-11 13:37:00,
2013-10-11 06:42:00,49.7,43.8,30.00,NE,56,4.0,6.0,80,0.00,,---,0.00,VWS V14.01,2013-10-11 13:42:00,
2013-10-11 06:45:00,49.8,43.6,30.00,NE,56,2.0,6.0,79,0.00,,---,0.00,VWS V14.01,2013-10-11 13:45:00,
2013-10-11 06:47:00,49.9,43.7,30.00,NE,56,5.0,5.0,79,0.00,,---,0.00,VWS V14.01,2013-10-11 13:47:00,
2013-10-11 06:52:00,49.9,43.7,30.00,NE,55,5.0,6.0,79,0.00,,---,0.00,VWS V14.01,2013-10-11 13:52:00,
2013-10-11 06:57:00,50.0,43.8,30.00,NE,52,3.0,7.0,79,0.00,,---,0.00,VWS V14.01,2013-10-11 13:57:00,
2013-10-11 07:00:00,50.1,43.8,30.00,NE,53,3.0,7.0,79,0.00,,---,0.00,VWS V14.01,2013-10-11 14:00:00,
2013-10-11 07:02:00,50.1,43.8,30.01,NE,52,4.0,9.0,79,0.00,,---,0.00,VWS V14.01,2013-10-11 14:02:00,
2013-10-11 07:06:00,50.2,44.0,30.01,NE,53,4.0,9.0,79,0.00,,---,0.00,VWS V14.01,2013-10-11 14:06:00,
2013-10-11 07:11:00,50.2,44.0,30.00,NE,53,4.0,9.0,79,0.00,,---,0.00,VWS V14.01,2013-10-11 14:11:00,
2013-10-11 07:15:00,50.3,43.7,30.00,NE,53,3.0,9.0,78,0.00,,---,0.00,VWS V14.01,2013-10-11 14:15:00,
2013-10-11 07:16:00,50.3,43.7,30.00,NE,53,5.0,5.0,78,0.00,,---,0.00,VWS V14.01,2013-10-11 14:16:00,
2013-10-11 07:21:00,50.5,43.9,30.00,NE,53,2.0,7.0,78,0.00,,---,0.00,VWS V14.01,2013-10-11 14:21:00,
2013-10-11 07:26:00,50.8,44.2,30.01,NE,49,4.0,7.0,78,0.00,,---,0.00,VWS V14.01,2013-10-11 14:26:00,
2013-10-11 07:30:00,50.9,44.3,30.01,NE,50,5.0,9.0,78,0.00,,---,0.00,VWS V14.01,2013-10-11 14:30:00,
2013-10-11 07:31:00,51.0,44.4,30.01,NE,50,3.0,6.0,78,0.00,,---,0.00,VWS V14.01,2013-10-11 14:31:00,
2013-10-11 07:36:00,51.3,44.3,30.01,NE,50,4.0,6.0,77,0.00,,---,0.00,VWS V14.01,2013-10-11 14:36:00,
2013-10-11 07:41:00,51.4,44.4,30.01,ENE,69,4.0,6.0,77,0.00,,---,0.00,VWS V14.01,2013-10-11 14:41:00,
2013-10-11 07:45:00,51.5,44.5,30.01,ENE,68,3.0,6.0,77,0.00,,---,0.00,VWS V14.01,2013-10-11 14:45:00,
2013-10-11 07:46:00,51.5,44.5,30.01,ENE,67,0.0,3.0,77,0.00,,---,0.00,VWS V14.01,2013-10-11 14:46:00,
2013-10-11 07:51:00,51.7,44.7,30.01,ENE,67,3.0,6.0,77,0.00,,---,0.00,VWS V14.01,2013-10-11 14:51:00,
2013-10-11 07:56:00,52.0,45.0,30.01,ENE,67,3.0,6.0,77,0.00,,---,0.00,VWS V14.01,2013-10-11 14:56:00,
2013-10-11 08:00:00,52.3,45.0,30.01,ENE,67,0.0,6.0,76,0.00,,---,0.00,VWS V14.01,2013-10-11 15:00:00,
2013-10-11 08:01:00,52.3,45.0,30.01,ENE,67,0.0,0.0,76,0.00,,---,0.00,VWS V14.01,2013-10-11 15:01:00,
2013-10-11 08:06:00,52.6,45.3,30.01,ENE,67,3.0,4.0,76,0.00,,---,0.00,VWS V14.01,2013-10-11 15:06:00,
2013-10-11 08:11:00,53.1,45.8,30.02,ENE,67,0.0,4.0,76,0.00,,---,0.00,VWS V14.01,2013-10-11 15:11:00,
2013-10-11 08:15:00,53.6,46.2,30.01,ENE,67,0.0,4.0,76,0.00,,---,0.00,VWS V14.01,2013-10-11 15:15:00,
2013-10-11 08:16:00,53.7,46.0,30.01,ENE,68,0.0,0.0,75,0.00,,---,0.00,VWS V14.01,2013-10-11 15:16:00,
2013-10-11 08:21:00,54.6,46.5,30.01,East,84,0.0,1.0,74,0.00,,---,0.00,VWS V14.01,2013-10-11 15:21:00,
2013-10-11 08:26:00,55.6,47.1,30.01,East,84,0.0,1.0,73,0.00,,---,0.00,VWS V14.01,2013-10-11 15:26:00,
2013-10-11 08:30:00,56.6,47.7,30.01,East,84,0.0,1.0,72,0.00,,---,0.00,VWS V14.01,2013-10-11 15:30:00,
2013-10-11 08:31:00,56.9,47.2,30.01,East,84,0.0,0.0,70,0.00,,---,0.00,VWS V14.01,2013-10-11 15:31:00,
2013-10-11 08:36:00,58.3,47.4,30.01,East,86,0.0,0.0,67,0.00,,---,0.00,VWS V14.01,2013-10-11 15:36:00,
2013-10-11 08:41:00,59.7,48.3,30.01,East,84,0.0,0.0,66,0.00,,---,0.00,VWS V14.01,2013-10-11 15:41:00,
2013-10-11 08:45:00,61.2,48.1,30.01,East,85,0.0,0.0,62,0.00,,---,0.00,VWS V14.01,2013-10-11 15:45:00,
2013-10-11 08:46:00,61.5,48.4,30.01,East,84,0.0,0.0,62,0.00,,---,0.00,VWS V14.01,2013-10-11 15:46:00,
2013-10-11 08:51:00,63.2,48.7,30.01,East,84,0.0,0.0,59,0.00,,---,0.00,VWS V14.01,2013-10-11 15:51:00,
2013-10-11 08:56:00,64.1,48.6,30.01,East,84,0.0,0.0,57,0.00,,---,0.00,VWS V14.01,2013-10-11 15:56:00,
2013-10-11 09:00:00,64.8,49.2,30.01,East,85,0.0,0.0,57,0.00,,---,0.00,VWS V14.01,2013-10-11 16:00:00,
2013-10-11 09:01:00,64.9,49.3,30.00,East,84,0.0,0.0,57,0.00,,---,0.00,VWS V14.01,2013-10-11 16:01:00,
2013-10-11 09:06:00,65.4,49.8,30.01,East,84,0.0,0.0,57,0.00,,---,0.00,VWS V14.01,2013-10-11 16:06:00,
2013-10-11 09:11:00,66.0,49.9,30.01,East,84,0.0,1.0,56,0.00,,---,0.00,VWS V14.01,2013-10-11 16:11:00,
2013-10-11 09:15:00,66.4,49.3,30.01,East,84,0.0,3.0,54,0.00,,---,0.00,VWS V14.01,2013-10-11 16:15:00,
2013-10-11 09:16:00,66.5,49.4,30.01,East,85,0.0,0.0,54,0.00,,---,0.00,VWS V14.01,2013-10-11 16:16:00,
2013-10-11 09:21:00,66.8,49.6,30.01,East,85,0.0,1.0,54,0.00,,---,0.00,VWS V14.01,2013-10-11 16:21:00,
2013-10-11 09:26:00,66.9,50.2,30.01,East,96,0.0,4.0,55,0.00,,---,0.00,VWS V14.01,2013-10-11 16:26:00,
2013-10-11 09:31:00,66.9,51.7,30.01,SSW,211,4.0,4.0,58,0.00,,---,0.00,VWS V14.01,2013-10-11 16:31:00,
2013-10-11 09:36:00,66.6,50.4,30.01,SW,217,0.0,5.0,56,0.00,,---,0.00,VWS V14.01,2013-10-11 16:36:00,
2013-10-11 09:41:00,66.3,51.1,30.01,SW,217,0.0,5.0,58,0.00,,---,0.00,VWS V14.01,2013-10-11 16:41:00,
2013-10-11 09:45:00,66.2,50.5,30.01,SW,221,1.0,5.0,57,0.00,,---,0.00,VWS V14.01,2013-10-11 16:45:00,
2013-10-11 09:46:00,66.2,50.5,30.01,West,261,0.0,2.0,57,0.00,,---,0.00,VWS V14.01,2013-10-11 16:46:00,
2013-10-11 09:51:00,66.1,51.4,30.01,WSW,252,1.0,4.0,59,0.00,,---,0.00,VWS V14.01,2013-10-11 16:51:00,
2013-10-11 09:56:00,66.0,50.8,30.01,West,261,0.0,4.0,58,0.00,,---,0.00,VWS V14.01,2013-10-11 16:56:00,
2013-10-11 10:00:00,66.0,51.7,30.02,West,261,4.0,7.0,60,0.00,,---,0.00,VWS V14.01,2013-10-11 17:00:00,
2013-10-11 10:01:00,66.0,50.8,30.01,WSW,255,4.0,4.0,58,0.00,,---,0.00,VWS V14.01,2013-10-11 17:01:00,
2013-10-11 10:06:00,65.6,51.4,30.01,WSW,257,2.0,6.0,60,0.00,,---,0.00,VWS V14.01,2013-10-11 17:06:00,
2013-10-11 10:11:00,65.6,51.4,30.01,WSW,241,0.0,6.0,60,0.00,,---,0.00,VWS V14.01,2013-10-11 17:11:00,
2013-10-11 10:15:00,65.6,51.4,30.01,WSW,241,0.0,6.0,60,0.00,,---,0.00,VWS V14.01,2013-10-11 17:15:00,
2013-10-11 10:16:00,65.6,51.4,30.01,WSW,242,1.0,3.0,60,0.00,,---,0.00,VWS V14.01,2013-10-11 17:16:00,
2013-10-11 10:21:00,65.6,50.4,30.01,WNW,284,2.0,5.0,58,0.00,,---,0.00,VWS V14.01,2013-10-11 17:21:00,
2013-10-11 10:26:00,65.8,51.5,30.01,WSW,257,0.0,6.0,60,0.00,,---,0.00,VWS V14.01,2013-10-11 17:26:00,
2013-10-11 10:30:00,66.2,51.9,30.01,West,267,0.0,6.0,60,0.00,,---,0.00,VWS V14.01,2013-10-11 17:30:00,
2013-10-11 10:31:00,66.3,51.1,30.01,SW,225,3.0,3.0,58,0.00,,---,0.00,VWS V14.01,2013-10-11 17:31:00,
2013-10-11 10:36:00,66.8,52.0,30.01,WSW,250,3.0,5.0,59,0.00,,---,0.00,VWS V14.01,2013-10-11 17:36:00,
2013-10-11 10:41:00,67.3,53.0,30.01,SW,225,2.0,6.0,60,0.00,,---,0.00,VWS V14.01,2013-10-11 17:41:00,
2013-10-11 10:45:00,67.6,51.8,30.01,WSW,242,2.0,6.0,57,0.00,,---,0.00,VWS V14.01,2013-10-11 17:45:00,
2013-10-11 10:46:00,67.6,52.3,30.01,WSW,241,5.0,5.0,58,0.00,,---,0.00,VWS V14.01,2013-10-11 17:46:00,
2013-10-11 10:51:00,67.9,52.6,30.01,WSW,258,0.0,6.0,58,0.00,,---,0.00,VWS V14.01,2013-10-11 17:51:00,
2013-10-11 10:56:00,68.0,53.2,30.00,West,261,3.0,6.0,59,0.00,,---,0.00,VWS V14.01,2013-10-11 17:56:00,
2013-10-11 11:00:00,68.1,52.8,30.00,WSW,254,3.0,7.0,58,0.00,,---,0.00,VWS V14.01,2013-10-11 18:00:00,
2013-10-11 11:01:00,68.1,52.3,30.00,WSW,257,0.0,3.0,57,0.00,,---,0.00,VWS V14.01,2013-10-11 18:01:00,
2013-10-11 11:06:00,68.6,53.2,30.00,SW,227,5.0,6.0,58,0.00,,---,0.00,VWS V14.01,2013-10-11 18:06:00,
2013-10-11 11:11:00,68.9,53.1,30.00,WSW,243,1.0,6.0,57,0.00,,---,0.00,VWS V14.01,2013-10-11 18:11:00,
2013-10-11 11:15:00,69.3,52.5,30.00,WSW,253,0.0,6.0,55,0.00,,---,0.00,VWS V14.01,2013-10-11 18:15:00,
2013-10-11 11:16:00,69.4,53.5,30.00,West,267,2.0,2.0,57,0.00,,---,0.00,VWS V14.01,2013-10-11 18:16:00,
2013-10-11 11:21:00,69.8,53.4,30.00,West,262,5.0,6.0,56,0.00,,---,0.00,VWS V14.01,2013-10-11 18:21:00,
2013-10-11 11:26:00,70.1,53.2,30.00,SW,229,7.0,7.0,55,0.00,,---,0.00,VWS V14.01,2013-10-11 18:26:00,
2013-10-11 11:30:00,70.1,54.2,30.00,SW,234,2.0,11.0,57,0.00,,---,0.00,VWS V14.01,2013-10-11 18:30:00,
2013-10-11 11:31:00,70.1,53.7,30.00,WSW,249,2.0,3.0,56,0.00,,---,0.00,VWS V14.01,2013-10-11 18:31:00,
2013-10-11 11:36:00,69.7,52.8,30.00,West,269,3.0,5.0,55,0.00,,---,0.00,VWS V14.01,2013-10-11 18:36:00,
2013-10-11 11:41:00,69.6,53.2,30.00,WSW,258,0.0,7.0,56,0.00,,---,0.00,VWS V14.01,2013-10-11 18:41:00,
2013-10-11 11:45:00,70.0,53.1,29.99,West,278,6.0,8.0,55,0.00,,---,0.00,VWS V14.01,2013-10-11 18:45:00,
2013-10-11 11:46:00,69.9,53.0,29.99,WNW,300,3.0,6.0,55,0.00,,---,0.00,VWS V14.01,2013-10-11 18:46:00,
2013-10-11 11:51:00,69.5,53.1,29.99,West,269,6.0,6.0,56,0.00,,---,0.00,VWS V14.01,2013-10-11 18:51:00,
2013-10-11 11:56:00,69.3,51.5,30.00,WNW,289,1.0,6.0,53,0.00,,---,0.00,VWS V14.01,2013-10-11 18:56:00,
2013-10-11 12:00:00,69.6,53.2,29.99,West,270,2.0,7.0,56,0.00,,---,0.00,VWS V14.01,2013-10-11 19:00:00,
2013-10-11 12:01:00,69.7,54.3,29.99,WSW,254,0.0,3.0,58,0.00,,---,0.00,VWS V14.01,2013-10-11 19:01:00,
2013-10-11 12:06:00,70.5,53.6,29.99,West,259,4.0,6.0,55,0.00,,---,0.00,VWS V14.01,2013-10-11 19:06:00,
2013-10-11 12:11:00,71.0,52.5,29.99,WNW,290,0.0,6.0,52,0.00,,---,0.00,VWS V14.01,2013-10-11 19:11:00,
2013-10-11 12:15:00,71.1,54.6,29.99,West,261,3.0,7.0,56,0.00,,---,0.00,VWS V14.01,2013-10-11 19:15:00,
2013-10-11 12:16:00,71.2,53.7,29.99,West,264,5.0,5.0,54,0.00,,---,0.00,VWS V14.01,2013-10-11 19:16:00,
2013-10-11 12:21:00,71.7,54.7,29.98,West,259,0.0,9.0,55,0.00,,---,0.00,VWS V14.01,2013-10-11 19:21:00,
2013-10-11 12:26:00,72.1,53.0,29.98,WNW,290,1.0,9.0,51,0.00,,---,0.00,VWS V14.01,2013-10-11 19:26:00,
2013-10-11 12:30:00,71.9,52.3,29.98,WNW,300,5.0,9.0,50,0.00,,---,0.00,VWS V14.01,2013-10-11 19:30:00,
2013-10-11 12:31:00,71.6,51.5,29.98,NW,313,0.0,5.0,49,0.00,,---,0.00,VWS V14.01,2013-10-11 19:31:00,
2013-10-11 12:36:00,70.6,53.2,29.98,NW,306,6.0,9.0,54,0.00,,---,0.00,VWS V14.01,2013-10-11 19:36:00,
2013-10-11 12:41:00,70.1,51.2,29.98,West,281,1.0,9.0,51,0.00,,---,0.00,VWS V14.01,2013-10-11 19:41:00,
2013-10-11 12:45:00,70.4,53.0,29.98,West,263,0.0,9.0,54,0.00,,---,0.00,VWS V14.01,2013-10-11 19:45:00,
2013-10-11 12:46:00,70.5,54.1,29.98,West,263,1.0,1.0,56,0.00,,---,0.00,VWS V14.01,2013-10-11 19:46:00,
2013-10-11 12:51:00,71.5,54.0,29.97,WSW,256,1.0,7.0,54,0.00,,---,0.00,VWS V14.01,2013-10-11 19:51:00,
2013-10-11 12:56:00,72.3,52.6,29.97,NNW,337,0.0,7.0,50,0.00,,---,0.00,VWS V14.01,2013-10-11 19:56:00,
2013-10-11 13:00:00,72.2,51.4,29.96,NW,307,1.0,7.0,48,0.00,,---,0.00,VWS V14.01,2013-10-11 20:00:00,
2013-10-11 13:01:00,72.1,51.3,29.96,NW,308,0.0,1.0,48,0.00,,---,0.00,VWS V14.01,2013-10-11 20:01:00,
2013-10-11 13:06:00,72.2,52.0,29.96,NW,315,2.0,7.0,49,0.00,,---,0.00,VWS V14.01,2013-10-11 20:06:00,
2013-10-11 13:11:00,72.5,53.9,29.96,West,269,4.0,10.0,52,0.00,,---,0.00,VWS V14.01,2013-10-11 20:11:00,
2013-10-11 13:15:00,73.1,53.4,29.96,WNW,284,0.0,10.0,50,0.00,,---,0.00,VWS V14.01,2013-10-11 20:15:00,
2013-10-11 13:16:00,73.1,52.3,29.96,NW,306,0.0,3.0,48,0.00,,---,0.00,VWS V14.01,2013-10-11 20:16:00,
2013-10-11 13:21:00,72.9,53.2,29.96,West,264,9.0,9.0,50,0.00,,---,0.00,VWS V14.01,2013-10-11 20:21:00,
2013-10-11 13:26:00,72.8,54.2,29.95,WSW,257,4.0,9.0,52,0.00,,---,0.00,VWS V14.01,2013-10-11 20:26:00,
2013-10-11 13:30:00,73.3,53.0,29.95,WSW,257,4.0,11.0,49,0.00,,---,0.00,VWS V14.01,2013-10-11 20:30:00,
2013-10-11 13:31:00,73.3,53.0,29.95,WSW,240,5.0,9.0,49,0.00,,---,0.00,VWS V14.01,2013-10-11 20:31:00,
2013-10-11 13:36:00,73.8,52.3,29.95,West,264,5.0,9.0,47,0.00,,---,0.00,VWS V14.01,2013-10-11 20:36:00,
2013-10-11 13:41:00,73.7,52.8,29.95,WNW,284,3.0,9.0,48,0.00,,---,0.00,VWS V14.01,2013-10-11 20:41:00,
2013-10-11 13:45:00,73.5,53.7,29.95,WSW,256,2.0,9.0,50,0.00,,---,0.00,VWS V14.01,2013-10-11 20:45:00,
2013-10-11 13:46:00,73.6,53.8,29.95,SW,223,5.0,5.0,50,0.00,,---,0.00,VWS V14.01,2013-10-11 20:46:00,
2013-10-11 13:51:00,73.9,53.0,29.94,West,260,0.0,5.0,48,0.00,,---,0.00,VWS V14.01,2013-10-11 20:51:00,
2013-10-11 13:56:00,74.2,53.3,29.95,WSW,242,4.0,7.0,48,0.00,,---,0.00,VWS V14.01,2013-10-11 20:56:00,
2013-10-11 14:00:00,74.2,53.3,29.94,WSW,247,6.0,9.0,48,0.00,,---,0.00,VWS V14.01,2013-10-11 21:00:00,
2013-10-11 14:01:00,74.2,53.3,29.94,West,275,3.0,7.0,48,0.00,,---,0.00,VWS V14.01,2013-10-11 21:01:00,
2013-10-11 14:06:00,74.4,54.6,29.94,SW,230,6.0,7.0,50,0.00,,---,0.00,VWS V14.01,2013-10-11 21:06:00,
2013-10-11 14:11:00,74.8,54.4,29.94,SW,226,6.0,7.0,49,0.00,,---,0.00,VWS V14.01,2013-10-11 21:11:00,
2013-10-11 14:15:00,74.9,52.2,29.94,West,268,6.0,7.0,45,0.00,,---,0.00,VWS V14.01,2013-10-11 21:15:00,
2013-10-11 14:16:00,74.8,52.7,29.94,West,267,5.0,8.0,46,0.00,,---,0.00,VWS V14.01,2013-10-11 21:16:00,
2013-10-11 14:21:00,74.2,52.7,29.94,West,263,6.0,8.0,47,0.00,,---,0.00,VWS V14.01,2013-10-11 21:21:00,
2013-10-11 14:26:00,74.0,53.1,29.94,SW,229,6.0,9.0,48,0.00,,---,0.00,VWS V14.01,2013-10-11 21:26:00,
2013-10-11 14:30:00,74.5,54.1,29.94,WSW,254,3.0,9.0,49,0.00,,---,0.00,VWS V14.01,2013-10-11 21:30:00,
2013-10-11 14:31:00,74.5,54.1,29.93,West,259,2.0,5.0,49,0.00,,---,0.00,VWS V14.01,2013-10-11 21:31:00,
2013-10-11 14:36:00,74.7,52.0,29.94,WNW,298,5.0,9.0,45,0.00,,---,0.00,VWS V14.01,2013-10-11 21:36:00,
2013-10-11 14:41:00,74.6,53.1,29.93,NW,312,2.0,9.0,47,0.00,,---,0.00,VWS V14.01,2013-10-11 21:41:00,
2013-10-11 14:45:00,74.8,52.7,29.93,WSW,244,4.0,9.0,46,0.00,,---,0.00,VWS V14.01,2013-10-11 21:45:00,
2013-10-11 14:46:00,74.8,52.1,29.93,West,268,4.0,5.0,45,0.00,,---,0.00,VWS V14.01,2013-10-11 21:46:00,
2013-10-11 14:51:00,75.0,52.8,29.93,SW,226,0.0,6.0,46,0.00,,---,0.00,VWS V14.01,2013-10-11 21:51:00,
2013-10-11 14:56:00,74.9,53.9,29.93,West,259,4.0,7.0,48,0.00,,---,0.00,VWS V14.01,2013-10-11 21:56:00,
2013-10-11 15:00:00,74.9,53.9,29.93,WSW,255,1.0,7.0,48,0.00,,---,0.00,VWS V14.01,2013-10-11 22:00:00,
2013-10-11 15:01:00,74.9,53.9,29.93,West,261,0.0,2.0,48,0.00,,---,0.00,VWS V14.01,2013-10-11 22:01:00,
2013-10-11 15:06:00,74.8,53.8,29.93,WNW,286,4.0,11.0,48,0.00,,---,0.00,VWS V14.01,2013-10-11 22:06:00,
2013-10-11 15:11:00,73.8,52.9,29.93,WNW,282,3.0,11.0,48,0.00,,---,0.00,VWS V14.01,2013-10-11 22:11:00,
2013-10-11 15:15:00,73.7,53.4,29.93,SW,227,3.0,11.0,49,0.00,,---,0.00,VWS V14.01,2013-10-11 22:15:00,
2013-10-11 15:16:00,73.7,53.4,29.93,SW,229,4.0,5.0,49,0.00,,---,0.00,VWS V14.01,2013-10-11 22:16:00,
2013-10-11 15:21:00,74.0,52.5,29.93,NW,314,0.0,6.0,47,0.00,,---,0.00,VWS V14.01,2013-10-11 22:21:00,
2013-10-11 15:26:00,73.9,53.6,29.93,West,272,2.0,9.0,49,0.00,,---,0.00,VWS V14.01,2013-10-11 22:26:00,
2013-10-11 15:30:00,73.4,54.7,29.93,WSW,257,3.0,10.0,52,0.00,,---,0.00,VWS V14.01,2013-10-11 22:30:00,
2013-10-11 15:31:00,73.4,54.7,29.93,West,267,5.0,6.0,52,0.00,,---,0.00,VWS V14.01,2013-10-11 22:31:00,
2013-10-11 15:36:00,73.5,53.7,29.93,West,261,6.0,7.0,50,0.00,,---,0.00,VWS V14.01,2013-10-11 22:36:00,
2013-10-11 15:41:00,73.4,54.2,29.93,WNW,291,3.0,9.0,51,0.00,,---,0.00,VWS V14.01,2013-10-11 22:41:00,
2013-10-11 15:45:00,73.1,55.0,29.93,West,275,0.0,9.0,53,0.00,,---,0.00,VWS V14.01,2013-10-11 22:45:00,
2013-10-11 15:46:00,73.1,55.0,29.93,West,276,2.0,2.0,53,0.00,,---,0.00,VWS V14.01,2013-10-11 22:46:00,
2013-10-11 15:51:00,73.2,55.1,29.93,West,261,4.0,8.0,53,0.00,,---,0.00,VWS V14.01,2013-10-11 22:51:00,
2013-10-11 15:56:00,73.3,54.6,29.93,SW,230,2.0,8.0,52,0.00,,---,0.00,VWS V14.01,2013-10-11 22:56:00,
2013-10-11 16:01:00,73.5,54.8,29.92,WNW,295,2.0,3.0,52,0.00,,---,0.00,VWS V14.01,2013-10-11 23:01:00,
2013-10-11 16:06:00,72.5,53.4,29.92,WNW,298,3.0,9.0,51,0.00,,---,0.00,VWS V14.01,2013-10-11 23:06:00,
2013-10-11 16:11:00,71.7,53.2,29.92,NW,312,4.0,10.0,52,0.00,,---,0.00,VWS V14.01,2013-10-11 23:11:00,
2013-10-11 16:15:00,71.1,53.6,29.93,SW,234,4.0,10.0,54,0.00,,---,0.00,VWS V14.01,2013-10-11 23:15:00,
2013-10-11 16:16:00,71.1,53.6,29.93,WSW,249,7.0,7.0,54,0.00,,---,0.00,VWS V14.01,2013-10-11 23:16:00,
2013-10-11 16:21:00,70.7,53.3,29.92,NW,311,3.0,11.0,54,0.00,,---,0.00,VWS V14.01,2013-10-11 23:21:00,
2013-10-11 16:26:00,70.2,53.8,29.92,WNW,291,0.0,11.0,56,0.00,,---,0.00,VWS V14.01,2013-10-11 23:26:00,
2013-10-11 16:31:00,69.9,54.0,29.92,SW,230,6.0,6.0,57,0.00,,---,0.00,VWS V14.01,2013-10-11 23:31:00,
2013-10-11 16:36:00,69.6,53.2,29.92,NW,312,1.0,9.0,56,0.00,,---,0.00,VWS V14.01,2013-10-11 23:36:00,
2013-10-11 16:41:00,69.3,53.4,29.92,NW,315,2.0,9.0,57,0.00,,---,0.00,VWS V14.01,2013-10-11 23:41:00,
2013-10-11 16:45:00,69.0,54.1,29.92,WNW,294,0.0,9.0,59,0.00,,---,0.00,VWS V14.01,2013-10-11 23:45:00,
2013-10-11 16:46:00,69.0,54.1,29.92,WNW,294,0.0,0.0,59,0.00,,---,0.00,VWS V14.01,2013-10-11 23:46:00,
2013-10-11 16:51:00,69.0,54.5,29.92,West,263,5.0,7.0,60,0.00,,---,0.00,VWS V14.01,2013-10-11 23:51:00,
2013-10-11 16:56:00,69.0,55.0,29.92,WNW,297,4.0,7.0,61,0.00,,---,0.00,VWS V14.01,2013-10-11 23:56:00,
2013-10-11 17:00:00,68.8,53.4,29.92,NW,304,3.0,7.0,58,0.00,,---,0.00,VWS V14.01,2013-10-12 00:00:00,
2013-10-11 17:01:00,68.8,53.4,29.92,WNW,292,2.0,3.0,58,0.00,,---,0.00,VWS V14.01,2013-10-12 00:01:00,
2013-10-11 17:06:00,68.4,53.5,29.92,WNW,290,0.0,7.0,59,0.00,,---,0.00,VWS V14.01,2013-10-12 00:06:00,
2013-10-11 17:11:00,68.3,53.4,29.92,NW,304,0.0,7.0,59,0.00,,---,0.00,VWS V14.01,2013-10-12 00:11:00,
2013-10-11 17:15:00,68.1,53.7,29.92,West,259,0.0,7.0,60,0.00,,---,0.00,VWS V14.01,2013-10-12 00:15:00,
2013-10-11 17:16:00,68.0,53.6,29.92,West,277,0.0,1.0,60,0.00,,---,0.00,VWS V14.01,2013-10-12 00:16:00,
2013-10-11 17:21:00,67.9,53.5,29.92,WNW,290,1.0,5.0,60,0.00,,---,0.00,VWS V14.01,2013-10-12 00:21:00,
2013-10-11 17:26:00,67.9,54.0,29.92,West,263,0.0,6.0,61,0.00,,---,0.00,VWS V14.01,2013-10-12 00:26:00,
2013-10-11 17:30:00,67.6,53.7,29.92,WNW,295,2.0,9.0,61,0.00,,---,0.00,VWS V14.01,2013-10-12 00:30:00,
2013-10-11 17:31:00,67.6,53.7,29.92,WNW,296,3.0,5.0,61,0.00,,---,0.00,VWS V14.01,2013-10-12 00:31:00,
2013-10-11 17:36:00,67.3,53.8,29.92,West,280,4.0,10.0,62,0.00,,---,0.00,VWS V14.01,2013-10-12 00:36:00,
2013-10-11 17:40:00,66.9,53.5,29.92,WSW,252,6.0,10.0,62,0.00,,---,0.00,VWS V14.01,2013-10-12 00:40:00,
2013-10-11 17:45:00,66.5,53.5,29.92,WNW,292,4.0,6.0,63,0.00,,---,0.00,VWS V14.01,2013-10-12 00:45:00,
2013-10-11 17:50:00,66.0,53.5,29.92,NW,317,3.0,9.0,64,0.00,,---,0.00,VWS V14.01,2013-10-12 00:50:00,
2013-10-11 17:55:00,65.6,54.0,29.93,NW,311,0.0,9.0,66,0.00,,---,0.00,VWS V14.01,2013-10-12 00:55:00,
2013-10-11 18:00:00,65.2,53.6,29.93,West,260,0.0,0.0,66,0.00,,---,0.00,VWS V14.01,2013-10-12 01:00:00,
2013-10-11 18:05:00,64.8,53.6,29.93,WNW,292,0.0,6.0,67,0.00,,---,0.00,VWS V14.01,2013-10-12 01:05:00,
2013-10-11 18:10:00,64.4,53.6,29.93,WSW,257,2.0,7.0,68,0.00,,---,0.00,VWS V14.01,2013-10-12 01:10:00,
2013-10-11 18:15:00,64.0,53.2,29.93,WNW,286,0.0,0.0,68,0.00,,---,0.00,VWS V14.01,2013-10-12 01:15:00,
2013-10-11 18:20:00,63.6,53.7,29.93,WNW,302,0.0,5.0,70,0.00,,---,0.00,VWS V14.01,2013-10-12 01:20:00,
2013-10-11 18:25:00,63.3,53.4,29.93,WSW,250,2.0,5.0,70,0.00,,---,0.00,VWS V14.01,2013-10-12 01:25:00,
2013-10-11 18:30:00,63.0,53.5,29.93,WNW,286,0.0,7.0,71,0.00,,---,0.00,VWS V14.01,2013-10-12 01:30:00,
2013-10-11 18:35:00,62.7,53.5,29.93,WSW,254,0.0,5.0,72,0.00,,---,0.00,VWS V14.01,2013-10-12 01:35:00,
2013-10-11 18:40:00,62.5,53.4,29.93,West,260,2.0,5.0,72,0.00,,---,0.00,VWS V14.01,2013-10-12 01:40:00,
2013-10-11 18:45:00,62.3,53.2,29.93,WSW,249,0.0,5.0,72,0.00,,---,0.00,VWS V14.01,2013-10-12 01:45:00,
2013-10-11 18:50:00,62.2,53.5,29.93,WSW,253,0.0,0.0,73,0.00,,---,0.00,VWS V14.01,2013-10-12 01:50:00,
2013-10-11 18:55:00,62.0,53.3,29.93,WNW,301,0.0,5.0,73,0.00,,---,0.00,VWS V14.01,2013-10-12 01:55:00,
2013-10-11 19:00:00,61.9,53.2,29.93,NW,309,0.0,5.0,73,0.00,,---,0.00,VWS V14.01,2013-10-12 02:00:00,
2013-10-11 19:05:00,61.9,53.2,29.93,NW,307,0.0,0.0,73,0.00,,---,0.00,VWS V14.01,2013-10-12 02:05:00,
2013-10-11 19:10:00,61.8,53.1,29.93,NW,307,0.0,0.0,73,0.00,,---,0.00,VWS V14.01,2013-10-12 02:10:00,
2013-10-11 19:15:00,61.7,53.3,29.93,NW,308,0.0,2.0,74,0.00,,---,0.00,VWS V14.01,2013-10-12 02:15:00,
2013-10-11 19:20:00,61.6,53.2,29.93,NW,309,0.0,0.0,74,0.00,,---,0.00,VWS V14.01,2013-10-12 02:20:00,
2013-10-11 19:25:00,61.4,53.0,29.93,NW,308,0.0,0.0,74,0.00,,---,0.00,VWS V14.01,2013-10-12 02:25:00,
2013-10-11 19:30:00,61.2,52.9,29.93,NW,309,0.0,0.0,74,0.00,,---,0.00,VWS V14.01,2013-10-12 02:30:00,
2013-10-11 19:35:00,61.0,53.0,29.93,NW,308,0.0,0.0,75,0.00,,---,0.00,VWS V14.01,2013-10-12 02:35:00,
2013-10-11 19:40:00,60.8,53.2,29.93,NW,307,0.0,0.0,76,0.00,,---,0.00,VWS V14.01,2013-10-12 02:40:00,
2013-10-11 19:45:00,60.6,52.6,29.94,NW,307,0.0,0.0,75,0.00,,---,0.00,VWS V14.01,2013-10-12 02:45:00,
2013-10-11 19:50:00,60.3,52.3,29.94,NW,307,0.0,0.0,75,0.00,,---,0.00,VWS V14.01,2013-10-12 02:50:00,
2013-10-11 19:55:00,60.1,52.2,29.94,NW,307,0.0,0.0,75,0.00,,---,0.00,VWS V14.01,2013-10-12 02:55:00,
2013-10-11 20:00:00,59.9,52.3,29.94,NW,309,0.0,0.0,76,0.00,,---,0.00,VWS V14.01,2013-10-12 03:00:00,
2013-10-11 20:05:00,59.7,52.1,29.92,NW,307,0.0,0.0,76,0.00,,---,0.00,VWS V14.01,2013-10-12 03:05:00,
2013-10-11 20:10:00,59.4,51.8,29.93,NW,309,0.0,0.0,76,0.00,,---,0.00,VWS V14.01,2013-10-12 03:10:00,
2013-10-11 20:15:00,59.0,51.5,29.92,NW,309,0.0,0.0,76,0.00,,---,0.00,VWS V14.01,2013-10-12 03:15:00,
2013-10-11 20:20:00,59.0,51.5,29.93,NW,309,0.0,0.0,76,0.00,,---,0.00,VWS V14.01,2013-10-12 03:20:00,
2013-10-11 20:25:00,59.0,51.8,29.92,NW,308,0.0,0.0,77,0.00,,---,0.00,VWS V14.01,2013-10-12 03:25:00,
2013-10-11 20:30:00,58.8,51.6,29.92,NW,307,0.0,0.0,77,0.00,,---,0.00,VWS V14.01,2013-10-12 03:30:00,
2013-10-11 20:35:00,58.6,51.4,29.92,NW,307,0.0,2.0,77,0.00,,---,0.00,VWS V14.01,2013-10-12 03:35:00,
2013-10-11 20:40:00,58.5,51.7,29.92,NW,308,0.0,2.0,78,0.00,,---,0.00,VWS V14.01,2013-10-12 03:40:00,
2013-10-11 20:45:00,58.4,51.6,29.93,NW,307,0.0,2.0,78,0.00,,---,0.00,VWS V14.01,2013-10-12 03:45:00,
2013-10-11 20:50:00,58.2,51.4,29.93,NW,326,2.0,3.0,78,0.00,,---,0.00,VWS V14.01,2013-10-12 03:50:00,
2013-10-11 20:55:00,58.0,50.8,29.93,NNW,327,0.0,3.0,77,0.00,,---,0.00,VWS V14.01,2013-10-12 03:55:00,
2013-10-11 21:00:00,57.9,50.0,29.93,NNW,327,0.0,3.0,75,0.00,,---,0.00,VWS V14.01,2013-10-12 04:00:00,
2013-10-11 21:01:00,57.9,50.0,29.93,North,9,2.0,2.0,75,0.00,,---,0.00,VWS V14.01,2013-10-12 04:01:00,
2013-10-11 21:02:00,57.8,49.6,29.93,NNE,27,0.0,4.0,74,0.00,,---,0.00,VWS V14.01,2013-10-12 04:02:00,
2013-10-11 21:07:00,57.7,48.8,29.93,NNE,29,0.0,4.0,72,0.00,,---,0.00,VWS V14.01,2013-10-12 04:07:00,
2013-10-11 21:12:00,57.8,48.5,29.93,NNE,28,0.0,4.0,71,0.00,,---,0.00,VWS V14.01,2013-10-12 04:12:00,
2013-10-11 21:15:00,57.8,48.8,29.93,NNE,29,0.0,4.0,72,0.00,,---,0.00,VWS V14.01,2013-10-12 04:15:00,
2013-10-11 21:17:00,57.8,49.2,29.93,NNE,29,0.0,0.0,73,0.00,,---,0.00,VWS V14.01,2013-10-12 04:17:00,
2013-10-11 21:22:00,57.5,48.2,29.93,NNE,29,0.0,0.0,71,0.00,,---,0.00,VWS V14.01,2013-10-12 04:22:00,
2013-10-11 21:27:00,57.2,47.9,29.94,NNE,28,0.0,0.0,71,0.00,,---,0.00,VWS V14.01,2013-10-12 04:27:00,
2013-10-11 21:30:00,57.0,47.3,29.93,NNE,28,0.0,0.0,70,0.00,,---,0.00,VWS V14.01,2013-10-12 04:30:00,
2013-10-11 21:32:00,56.9,47.2,29.93,NNE,29,0.0,0.0,70,0.00,,---,0.00,VWS V14.01,2013-10-12 04:32:00,
2013-10-11 21:37:00,56.8,47.1,29.94,NNE,29,0.0,0.0,70,0.00,,---,0.00,VWS V14.01,2013-10-12 04:37:00,
2013-10-11 21:42:00,56.8,47.5,29.94,NNE,28,0.0,0.0,71,0.00,,---,0.00,VWS V14.01,2013-10-12 04:42:00,
2013-10-11 21:45:00,56.8,47.9,29.94,NNE,29,0.0,0.0,72,0.00,,---,0.00,VWS V14.01,2013-10-12 04:45:00,
2013-10-11 21:47:00,56.8,47.9,29.94,NNE,29,0.0,0.0,72,0.00,,---,0.00,VWS V14.01,2013-10-12 04:47:00,
2013-10-11 21:52:00,56.8,47.9,29.94,NNE,28,0.0,0.0,72,0.00,,---,0.00,VWS V14.01,2013-10-12 04:52:00,
2013-10-11 21:57:00,56.8,48.2,29.94,NNE,28,0.0,0.0,73,0.00,,---,0.00,VWS V14.01,2013-10-12 04:57:00,
2013-10-11 22:00:00,56.8,48.2,29.94,NNE,28,0.0,0.0,73,0.00,,---,0.00,VWS V14.01,2013-10-12 05:00:00,
2013-10-11 22:02:00,56.8,48.2,29.94,NNE,29,0.0,0.0,73,0.00,,---,0.00,VWS V14.01,2013-10-12 05:02:00,
2013-10-11 22:07:00,56.6,47.7,29.94,NNE,29,0.0,0.0,72,0.00,,---,0.00,VWS V14.01,2013-10-12 05:07:00,
2013-10-11 22:12:00,56.4,47.5,29.94,NNE,28,0.0,0.0,72,0.00,,---,0.00,VWS V14.01,2013-10-12 05:12:00,
2013-10-11 22:15:00,56.2,47.7,29.94,NNE,29,0.0,0.0,73,0.00,,---,0.00,VWS V14.01,2013-10-12 05:15:00,
2013-10-11 22:17:00,56.2,47.7,29.94,NNE,28,0.0,0.0,73,0.00,,---,0.00,VWS V14.01,2013-10-12 05:17:00,
2013-10-11 22:22:00,56.1,47.9,29.94,NNE,29,0.0,0.0,74,0.00,,---,0.00,VWS V14.01,2013-10-12 05:22:00,
2013-10-11 22:27:00,56.1,47.9,29.94,NNE,28,0.0,0.0,74,0.00,,---,0.00,VWS V14.01,2013-10-12 05:27:00,
2013-10-11 22:30:00,56.1,48.3,29.94,NNE,29,0.0,0.0,75,0.00,,---,0.00,VWS V14.01,2013-10-12 05:30:00,
2013-10-11 22:32:00,56.1,48.3,29.94,NNE,30,0.0,0.0,75,0.00,,---,0.00,VWS V14.01,2013-10-12 05:32:00,
2013-10-11 22:37:00,55.9,48.1,29.94,NNE,28,0.0,0.0,75,0.00,,---,0.00,VWS V14.01,2013-10-12 05:37:00,
2013-10-11 22:42:00,55.8,48.0,29.94,NNE,28,0.0,0.0,75,0.00,,---,0.00,VWS V14.01,2013-10-12 05:42:00,
2013-10-11 22:45:00,55.7,47.9,29.94,NNE,28,0.0,0.0,75,0.00,,---,0.00,VWS V14.01,2013-10-12 05:45:00,
2013-10-11 22:47:00,55.7,47.9,29.94,NNE,28,0.0,0.0,75,0.00,,---,0.00,VWS V14.01,2013-10-12 05:47:00,
2013-10-11 22:52:00,55.6,48.2,29.94,NNE,28,0.0,0.0,76,0.00,,---,0.00,VWS V14.01,2013-10-12 05:52:00,
2013-10-11 22:57:00,55.5,48.1,29.94,NNE,28,0.0,0.0,76,0.00,,---,0.00,VWS V14.01,2013-10-12 05:57:00,
2013-10-11 23:00:00,55.4,48.3,29.94,NNE,28,0.0,0.0,77,0.00,,---,0.00,VWS V14.01,2013-10-12 06:00:00,
2013-10-11 23:02:00,55.4,48.3,29.94,NNE,29,0.0,0.0,77,0.00,,---,0.00,VWS V14.01,2013-10-12 06:02:00,
2013-10-11 23:07:00,55.4,48.3,29.94,NNE,28,0.0,0.0,77,0.00,,---,0.00,VWS V14.01,2013-10-12 06:07:00,
2013-10-11 23:12:00,55.4,48.7,29.94,NNE,28,0.0,0.0,78,0.00,,---,0.00,VWS V14.01,2013-10-12 06:12:00,
2013-10-11 23:15:00,55.3,48.6,29.94,NNE,29,0.0,0.0,78,0.00,,---,0.00,VWS V14.01,2013-10-12 06:15:00,
2013-10-11 23:17:00,55.3,48.2,29.94,NNE,29,0.0,0.0,77,0.00,,---,0.00,VWS V14.01,2013-10-12 06:17:00,
2013-10-11 23:22:00,55.1,48.0,29.95,NNE,29,0.0,0.0,77,0.00,,---,0.00,VWS V14.01,2013-10-12 06:22:00,
2013-10-11 23:27:00,54.9,47.5,29.95,NNE,28,0.0,0.0,76,0.00,,---,0.00,VWS V14.01,2013-10-12 06:27:00,
2013-10-11 23:30:00,54.8,47.4,29.95,NNE,28,0.0,0.0,76,0.00,,---,0.00,VWS V14.01,2013-10-12 06:30:00,
2013-10-11 23:32:00,54.7,47.3,29.94,NNE,28,0.0,0.0,76,0.00,,---,0.00,VWS V14.01,2013-10-12 06:32:00,
2013-10-11 23:37:00,54.6,47.5,29.95,NNE,29,3.0,3.0,77,0.00,,---,0.00,VWS V14.01,2013-10-12 06:37:00,
2013-10-11 23:42:00,54.4,47.3,29.94,NNE,28,0.0,3.0,77,0.00,,---,0.00,VWS V14.01,2013-10-12 06:42:00,
2013-10-11 23:45:00,54.3,47.6,29.94,NNE,29,0.0,3.0,78,0.00,,---,0.00,VWS V14.01,2013-10-12 06:45:00,
2013-10-11 23:47:00,54.2,47.5,29.94,NNE,28,0.0,0.0,78,0.00,,---,0.00,VWS V14.01,2013-10-12 06:47:00,
2013-10-11 23:52:00,54.1,47.4,29.94,NNE,28,0.0,0.0,78,0.00,,---,0.00,VWS V14.01,2013-10-12 06:52:00,
2013-10-11 23:57:00,53.9,47.5,29.94,NNE,29,1.0,3.0,79,0.00,,---,0.00,VWS V14.01,2013-10-12 06:57:00,